This is the latest recevied weather packets stored in our database for station/object W4TBD-13. If no packets are shown the sender has not sent any weather packets the latest 10 day(s).
| Time | Temp. | Humidity | Pressure | Rain* | Wind** | Luminosity | Snow |
|---|---|---|---|---|---|---|---|
| 1777882206 | 11.11° C | 59% | 1006.8 hPa | 0 mm | - | 0 W/m² | - |
| 1777881605 | 10.56° C | 58% | 1006.8 hPa | 0 mm | - | 0 W/m² | - |
| 1777881305 | 10.56° C | 59% | 1007 hPa | 0 mm | - | 0 W/m² | - |
| 1777879805 | 10.56° C | 58% | 1006.5 hPa | 0 mm | - | 0 W/m² | - |
| 1777879506 | 10.56° C | 59% | 1006.5 hPa | 0 mm | - | 0 W/m² | - |
| 1777874104 | 8.33° C | 72% | 1006.6 hPa | 0 mm | - | 0 W/m² | - |
| 1777873805 | 8.33° C | 73% | 1006.6 hPa | 0 mm | - | 0 W/m² | - |
| 1777872605 | 8.89° C | 72% | 1006.8 hPa | 0 mm | - | 0 W/m² | - |
| 1777864505 | 9.44° C | 72% | 1006.6 hPa | 0 mm | - | 0 W/m² | - |
| 1777861504 | 10.56° C | 70% | 1006.5 hPa | 0 mm | - | 0 W/m² | - |
| 1777861205 | 10.56° C | 70% | 1006.5 hPa | 0 mm | - | 0 W/m² | - |
| 1777857604 | 12.22° C | 62% | 1006.2 hPa | 0 mm | - | 0 W/m² | - |
| 1777857306 | 12.22° C | 61% | 1005.9 hPa | 0 mm | - | 0 W/m² | - |
| 1777855505 | 13.33° C | 53% | 1006 hPa | 0 mm | - | 0 W/m² | - |
| 1777854304 | 13.89° C | 48% | 1005.9 hPa | 0 mm | - | 0 W/m² | - |
| 1777851005 | 16.11° C | 39% | 1005.5 hPa | 0 mm | - | 0 W/m² | - |
| 1777850405 | 16.67° C | 36% | 1005.6 hPa | 0 mm | - | 0 W/m² | - |
| 1777848904 | 16.67° C | 39% | 1005.6 hPa | 0 mm | - | 0 W/m² | - |
| 1777846504 | 16.67° C | 35% | 1005.6 hPa | 0 mm | - | 0 W/m² | - |
| 1777845904 | 16.67° C | 34% | 1005.6 hPa | 0 mm | - | 0 W/m² | - |
| 1777845304 | 17.22° C | 34% | 1005.9 hPa | 0 mm | - | 0 W/m² | - |
| 1777838406 | 16.67° C | 32% | 1006 hPa | 0 mm | - | 0 W/m² | - |
| 1777837206 | 16.67° C | 34% | 1006.4 hPa | 0 mm | - | 0 W/m² | - |
| 1777834804 | 15.56° C | 37% | 1007.1 hPa | 0 mm | - | 0 W/m² | - |
| 1777834504 | 16.11° C | 34% | 1006.9 hPa | 0 mm | - | 0 W/m² | - |
* Rain latest hour (hover to see other rain measurements)
** Current wind speed in m/s (hover to see current wind gust speed)